This demonstration page uses our WeatherBlox Daily Observations layout. Learn more.

Left ArrowRight Arrow

36.19886, -115.1175

Hourly Observations for December 24, 2015

Temp ( °F °C ) Dew Point ( °F °C ) Humidity (%) Winds ( mph kmh ) Pressure ( in mb ) Visibility ( mi km ) Precip ( " mm )
12:53 am 00:53 Mostly Cloudy 47 8.3 18 -7.8 31 31 NW 5 7 29.85 1011 10 16 0.00 0.00
1:53 am 01:53 Cloudy 48 8.9 18 -7.8 30 30 WSW 3 6 29.86 1011 10 16 0.00 0.00
2:53 am 02:53 Partly Cloudy 44 6.7 20 -6.7 38 38 Calm 29.86 1011 10 16 0.00 0.00
3:53 am 03:53 Mostly Cloudy 43 6.1 18 -7.8 37 37 WSW 5 7 29.85 1011 10 16 0.00 0.00
4:53 am 04:53 Mostly Cloudy 42 5.6 18 -7.8 38 38 S 5 7 29.84 1011 10 16 0.00 0.00
5:53 am 05:53 Mostly Cloudy 42 5.6 17 -8.3 36 36 S 5 7 29.87 1012 10 16 0.00 0.00
6:53 am 06:53 Cloudy 42 5.6 18 -7.8 38 38 N 5 7 29.90 1013 10 16 0.00 0.00
7:53 am 07:53 Mostly Cloudy 42 5.6 19 -7.2 40 40 WNW 6 9 29.93 1013 10 16 0.00 0.00
8:53 am 08:53 Partly Cloudy 44 6.7 17 -8.3 34 34 Calm 29.94 1014 10 16 0.00 0.00
9:53 am 09:53 Partly Cloudy 48 8.9 16 -8.9 28 28 ESE 10 17 29.93 1014 10 16 0.00 0.00
10:53 am 10:53 Sunny 49 9.4 15 -9.4 26 26 ESE 8 13 29.90 1013 10 16 0.00 0.00
11:53 am 11:53 Sunny 50 10 17 -8.3 27 27 E 5 7 29.86 1011 10 16 0.00 0.00
12:53 pm 12:53 Sunny 53 11.7 19 -7.2 26 26 ESE 10 17 29.82 1010 10 16 0.00 0.00
1:53 pm 13:53 Sunny 54 12.2 18 -7.8 24 24 ESE 12 19 29.79 1009 10 16 0.00 0.00
2:53 pm 14:53 Sunny 56 13.3 16 -8.9 21 21 SW 16 26 29.77 1008 10 16 0.00 0.00
3:53 pm 15:53 Sunny 55 12.8 17 -8.3 22 22 SSW 17 28 29.76 1008 10 16 0.00 0.00
4:53 pm 16:53 Clear 53 11.7 15 -9.4 22 22 S 10 17 29.77 1008 10 16 0.00 0.00
5:53 pm 17:53 Clear 53 11.7 15 -9.4 22 22 WSW 8 13 29.77 1008 10 16 0.00 0.00
6:53 pm 18:53 Clear 52 11.1 16 -8.9 24 24 SW 9 15 29.76 1008 10 16 0.00 0.00
7:53 pm 19:53 Clear 51 10.6 20 -6.7 29 29 WSW 10 17 29.78 1008 10 16 0.00 0.00
8:53 pm 20:53 Clear 51 10.6 23 -5 33 33 WSW 15 24 29.76 1008 10 16 0.00 0.00
9:53 pm 21:53 Mostly Clear 51 10.6 25 -3.9 36 36 W 16 26 29.77 1008 10 16 0.00 0.00
10:53 pm 22:53 Partly Cloudy 50 10 24 -4.4 36 36 W 18 30 29.77 1008 10 16 0.00 0.00
11:53 pm 23:53 Cloudy with Light Rain 48 8.9 26 -3.3 42 42 W 24 39 29.78 1009 10 16 0.00 0.03

Powered by AerisWeather